Merimbula Observation History
Time Wind Speed Temp Pressure Rel. Hum Rain
04/03:30am SW 5-6 kts 5.9°c 1031.6 hPa 94% 0.0mm
04/03:00am SW 4-5 kts 6.7°c 1031.6 hPa 91% 0.0mm
04/02:30am WSW 3-4 kts 7.7°c 1031.6 hPa 85% 0.0mm
04/02:00am WSW 5-8 kts 8.9°c 1031.6 hPa 79% 0.0mm
04/01:30am WSW 6-9 kts 9.5°c 1031.4 hPa 79% 0.0mm
04/01:00am W 6-8 kts 9.7°c 1031.4 hPa 79% 0.0mm
04/12:30am WSW 6-10 kts 9.9°c 1031.5 hPa 78% 0.0mm
04/12:00am SW 6-10 kts 9.6°c 1031.5 hPa 80% 0.0mm
Time Wind Speed Temp Pressure Rel. Hum Rain
03/11:30pm WSW 5-7 kts 8.8°c 1031.6 hPa 80% 0.0mm
03/11:00pm W 5-7 kts 8.8°c 1031.5 hPa 83% 0.0mm
03/10:30pm W 5-6 kts 8.7°c 1031.3 hPa 81% 0.0mm
03/10:00pm SW 4-7 kts 9.9°c 1031.2 hPa 78% 0.0mm
03/09:30pm WSW 6-10 kts 10.7°c 1031.0 hPa 73% 0.0mm
03/09:00pm WSW 8-13 kts 11.3°c 1030.8 hPa 70% 0.0mm
03/08:30pm WSW 6-10 kts 11.3°c 1030.6 hPa 71% 0.0mm
03/08:00pm SW 7-10 kts 11.6°c 1030.3 hPa 73% 0.0mm
03/07:30pm WSW 5-9 kts 11.4°c 1029.9 hPa 75% 0.0mm
03/07:00pm SW 5-7 kts 11.3°c 1029.5 hPa 78% 0.0mm
03/06:30pm SW 5-8 kts 11.6°c 1029.3 hPa 75% 0.0mm
03/06:00pm SW 7-14 kts 11.6°c 1028.6 hPa 74% 0.0mm
03/05:30pm SW 7-12 kts 11.7°c 1028.1 hPa 71% 0.0mm
03/05:00pm WSW 7-12 kts 11.8°c 1027.6 hPa 69% 0.0mm
03/04:30pm WSW 9-15 kts 11.9°c 1027.3 hPa 70% 0.0mm
03/04:00pm SW 11-19 kts 12.3°c 1026.9 hPa 70% 0.0mm
03/03:30pm SW 11-16 kts 12.6°c 1026.5 hPa 72% 0.0mm
03/03:00pm SW 9-19 kts 12.6°c 1025.9 hPa 73% 0.0mm
03/02:30pm SSW 15-24 kts 12.6°c 1025.6 hPa 73% 0.0mm
03/02:00pm SW 12-22 kts 14.3°c 1024.9 hPa 60% 0.0mm
03/01:30pm SW 13-26 kts 16.2°c 1024.2 hPa 49% 0.0mm
03/01:05pm SSW 15-27 kts 15.6°c 1024.1 hPa 50% 0.0mm
03/01:00pm SSW 14-27 kts 15.9°c 1024.0 hPa 48% 0.0mm
03/12:49pm SSW 15-26 kts 16.1°c 1023.9 hPa 48% 0.0mm
03/12:30pm SW 11-17 kts 16.3°c 1023.7 hPa 48% 0.0mm
03/12:00pm SW 11-19 kts 15.5°c 1023.6 hPa 52% 0.0mm
03/11:30am SW 14-23 kts 14.9°c 1023.6 hPa 56% 0.0mm
03/11:00am SW 12-18 kts 14.1°c 1023.5 hPa 60% 0.0mm
03/10:33am SW 15-28 kts 14.6°c 1023.5 hPa 57% 0.0mm
03/10:30am SW 14-28 kts 14.3°c 1023.3 hPa 57% 0.0mm
03/10:00am SW 10-17 kts 14.3°c 1022.9 hPa 58% 0.0mm
03/09:30am WSW 9-14 kts 14.2°c 1022.9 hPa 57% 0.0mm
03/09:00am WSW 12-21 kts 13.7°c 1022.1 hPa 58% 0.0mm
03/08:30am WSW 12-21 kts 13.1°c 1021.6 hPa 59% 0.0mm
03/08:00am WSW 12-22 kts 12.5°c 1021.2 hPa 63% 0.0mm
03/07:30am WSW 10-17 kts 12.1°c 1020.6 hPa 64% 0.0mm
03/07:00am SW 10-19 kts 12.6°c 1019.9 hPa 61% 0.0mm
03/06:30am SW 9-17 kts 12.6°c 1019.7 hPa 63% 0.0mm
03/06:00am SW 6-14 kts 11.9°c 1018.5 hPa 66% 0.0mm
03/05:30am SW 6-12 kts 12.1°c 1017.7 hPa 68% 0.0mm
03/05:00am SW 7-13 kts 11.6°c 1017.1 hPa 73% 0.0mm
03/04:30am SSW 7-11 kts 11.3°c 1017.1 hPa 81% 0.0mm
03/04:00am S 4-6 kts 11.0°c 1016.4 hPa 77% 0.0mm
03/03:30am WSW 5-6 kts 11.7°c 1016.2 hPa 69% 0.0mm
03/03:00am W 8-12 kts 12.7°c 1015.7 hPa 59% 0.0mm
03/02:30am W 11-17 kts 12.9°c 1015.2 hPa 57% 0.0mm
03/02:00am W 13-19 kts 13.0°c 1015.3 hPa 56% 0.0mm
03/01:30am W 13-19 kts 12.8°c 1015.3 hPa 58% 0.0mm
03/01:00am W 13-20 kts 13.1°c 1014.9 hPa 58% 0.0mm
03/12:30am W 13-22 kts 13.1°c 1014.9 hPa 59% 0.0mm
03/12:00am WSW 9-18 kts 11.6°c 1015.0 hPa 73% 0.0mm
Time Wind Speed Temp Pressure Rel. Hum Rain
02/11:58pm WSW 7-16 kts 11.2°c 1015.0 hPa 77% 0.0mm
02/11:30pm CALM 0 kts 6.2°c 1015.0 hPa 97% 0.0mm
02/11:00pm CALM 0 kts 6.3°c 1015.2 hPa 97% 0.0mm
02/10:30pm WNW 2-6 kts 6.2°c 1015.7 hPa 95% 0.0mm
02/10:00pm SSW 3-6 kts 6.3°c 1015.8 hPa 93% 0.0mm
02/09:30pm NW 2-4 kts 6.4°c 1015.4 hPa 94% 0.0mm
02/09:00pm WSW 4 kts 7.1°c 1015.6 hPa 94% 0.0mm
02/08:30pm SW 3-5 kts 7.4°c 1015.9 hPa 91% 0.0mm
02/08:00pm WSW 1-4 kts 7.8°c 1015.7 hPa 90% 0.0mm
02/07:30pm WNW 4-6 kts 8.5°c 1015.2 hPa 87% 0.0mm
02/07:00pm SW 4-5 kts 8.7°c 1015.4 hPa 84% 0.0mm
02/06:30pm NW 4-5 kts 9.5°c 1014.6 hPa 83% 0.0mm
02/06:00pm NW 5-7 kts 10.7°c 1014.8 hPa 78% 0.0mm
02/05:30pm W 3-6 kts 10.9°c 1014.9 hPa 72% 0.0mm
02/05:00pm CALM 0-2 kts 12.6°c 1014.7 hPa 63% 0.0mm
02/04:30pm SW 4-7 kts 14.3°c 1014.5 hPa 57% 0.0mm
02/04:00pm SSW 7-12 kts 15.5°c 1014.4 hPa 53% 0.0mm
02/03:30pm SW 8-13 kts 16.7°c 1014.1 hPa 49% 0.0mm
02/03:00pm SW 7-13 kts 17.0°c 1014.0 hPa 47% 0.0mm
02/02:30pm SSW 9-16 kts 17.1°c 1013.8 hPa 48% 0.0mm
02/02:00pm SW 9-15 kts 17.2°c 1013.8 hPa 47% 0.0mm
02/01:30pm SW 9-16 kts 16.9°c 1013.9 hPa 47% 0.0mm
02/01:00pm SSW 9-15 kts 16.9°c 1014.0 hPa 48% 0.0mm
02/12:30pm SW 11-18 kts 16.4°c 1014.2 hPa 48% 0.0mm
02/12:00pm SW 10-16 kts 16.3°c 1014.5 hPa 49% 0.0mm
02/11:30am SW 10-15 kts 15.8°c 1014.8 hPa 48% 0.0mm
02/11:00am WSW 9-14 kts 15.2°c 1015.1 hPa 46% 0.0mm
02/10:30am SW 7-13 kts 14.7°c 1015.3 hPa 49% 0.0mm
02/10:00am SW 9-17 kts 14.3°c 1015.3 hPa 52% 0.0mm
02/09:30am WSW 11-18 kts 13.3°c 1015.2 hPa 53% 0.0mm
02/09:00am WSW 9-16 kts 12.8°c 1015.2 hPa 56% 0.0mm
02/08:30am WSW 7-15 kts 12.2°c 1015.0 hPa 58% 0.0mm
02/08:00am WSW 10-16 kts 11.4°c 1014.9 hPa 60% 0.0mm
02/07:30am WSW 11-20 kts 11.0°c 1014.7 hPa 61% 0.0mm
02/07:00am WSW 12-21 kts 11.3°c 1014.5 hPa 60% 0.0mm
02/06:30am WSW 11-20 kts 11.6°c 1013.8 hPa 63% 0.0mm
02/06:00am SW 7-14 kts 11.3°c 1013.3 hPa 68% 0.0mm
02/05:30am SW 12-21 kts 11.8°c 1012.5 hPa 67% 0.0mm
02/05:00am SW 9-18 kts 11.6°c 1011.8 hPa 69% 0.0mm
02/04:30am SW 9-15 kts 11.9°c 1011.6 hPa 68% 0.0mm
02/04:00am SW 9-15 kts 11.9°c 1011.3 hPa 69% 0.0mm
02/03:30am WSW 6-12 kts 11.4°c 1011.3 hPa 68% 0.0mm
02/03:00am WSW 7-14 kts 11.4°c 1011.1 hPa 65% 0.0mm
02/02:30am SW 8-14 kts 11.4°c 1011.0 hPa 64% 0.0mm
02/02:00am WSW 10-16 kts 12.1°c 1010.6 hPa 60% 0.0mm
02/01:30am WSW 10-15 kts 12.4°c 1010.4 hPa 61% 0.0mm
02/01:00am WSW 8-13 kts 12.7°c 1010.5 hPa 62% 0.0mm
02/12:30am WSW 6-9 kts 12.4°c 1010.3 hPa 67% 0.0mm
02/12:00am WSW 4-6 kts 11.8°c 1010.4 hPa 76% 0.0mm